Home   Weather   Swansea   Past weeks

Flag for United Kingdom Past Weather in Swansea, Wales, United Kingdom — Yesterday and Last 2 Weeks

Now
49 °F

Cool.


Feels Like: 46 °F
Forecast: 40 / 50 °F
Wind: 7 mph from West

Location: Mumbles

Current Time: Apr 24, 2017 at 8:30:49 am

Latest Report: Apr 24, 2017 at 7:00 am


Visibility: N/A

Pressure: 30.12 "Hg

Humidity: 82%

Dew Point: 44 °F

Location of SwanseaLocation

Past Weather in Swansea — Graph

°F

Swansea Temperature Yesterday

Maximum temperature yesterday: 56 °F (at 2:00 pm)
Minimum temperature yesterday: 48 °F (at 7:00 am)
Average temperature yesterday: 51 °F

High & Low Weather Summary for the Past Weeks

 TemperatureHumidityPressure
High62 °F (Apr 22, 4:00 pm)99% (Apr 14, 10:00 pm)30.65 "Hg (Apr 14, 10:00 pm)
Low44 °F (Apr 11, 4:00 am)47% (Apr 22, 12:50 pm)30.03 "Hg (Apr 14, 8:00 pm)
Average50 °F76%30.33 "Hg
* Reported Apr 9 7:00 am — Apr 24 7:00 am, Swansea, Weather by CustomWeather, © 2017

Note: Actual official high and low records may vary slightly from our data, if they occured in-between our weather recording intervals... More about our weather records

Advertising

Swansea Weather History for the Previous 24 Hours

Scroll right to see more
 ConditionsComfort  
Time TempWeatherWind HumidityBarometerVisibility
7:00 am
Mon, Apr 24
49 °FCool.7 mph82%30.12 "HgN/A
6:00 am49 °FCool.8 mph80%30.13 "HgN/A
5:00 am48 °FCool.3 mph79%30.15 "HgN/A
4:00 am48 °FCool.No wind74%30.16 "HgN/A
3:00 am48 °FCool.6 mph74%30.18 "HgN/A
2:00 am47 °FCool.8 mph77%30.20 "HgN/A
12:50 am47 °FCool.7 mph75%30.22 "HgN/A
12:00 am48 °FCool.10 mph72%30.23 "HgN/A
11:00 pm
Sun, Apr 23
50 °FCool.8 mph66%30.24 "HgN/A
10:00 pm50 °FCool.8 mph65%30.25 "HgN/A
9:00 pm51 °FCool.8 mph63%30.25 "HgN/A
8:00 pm52 °FCool.12 mph85%30.25 "HgN/A
7:00 pm52 °FCool.13 mph86%30.26 "HgN/A
5:00 pm52 °FCool.10 mph81%30.29 "HgN/A
4:00 pm53 °FCool.10 mph75%30.30 "HgN/A
3:00 pm54 °FCool.12 mph71%30.32 "HgN/A
2:00 pm56 °FCool.8 mph62%30.34 "HgN/A
12:50 pm56 °FCool.7 mph63%30.35 "HgN/A
12:00 pm53 °FCool.6 mph66%30.37 "HgN/A
11:00 am51 °FCool.5 mph71%30.37 "HgN/A
10:00 am49 °FCool.6 mph72%30.38 "HgN/A
9:00 am49 °FCool.8 mph72%30.38 "HgN/A
8:00 am49 °FCool.12 mph67%30.37 "HgN/A
Weather by CustomWeather, © 2017

See weather overviewHow to use our weather pages